Погода в Моршанске

Погода в Моршанске : погода сейчас, прогноз погоды и архив. Всё, что Вы хотите узнать о погоде в Моршанске!

Поиск расширенной информации на нашем сайте:

Другие новости

Новости СМИ2

Главная страница сайта

Новости сайта

03.07.2017

Напоминаем, что на нашем специализированном сайте Метеоцентр.Азия вы можете получить высокодетализированные автоматические прогнозы погоды по пунктам России, СНГ и мира в авиационном формате (включающие направление и скорость ветра, видимость, явления погоды, количество и форму облачности, нижнюю и верхнюю границу облачности).


Погода в Моршанске - сегодня

Время (UTC), дата Ветер
(°,м/с) 
Видим.   Явления Облачность Т
(°С)
Тd
(°С)
f(%) Тe
(°С)
Pmin
(гПа)
dP
(гПа)
Po
(мм)
O2
(г/м3)
Тmin Tmax R s Состояние
почвы
12 20.10.17 330 (СЗ) 10 км    8/8 600 м кучево-дожд. 
[Cb cap]
+9.2 -2.2 45 +8  1019.7  -0.2  752  293           
15 20.10.17 тихо ()   10 км    9/9 600 м кучево-дожд. 
[Cb cap]
+5.6 -0.8 63 +6  1020.4  0.4  752  297    +10       
18 20.10.17 330 (СЗ) 10 км    9/9 600 м 
[Sc]
+4.6 +0.4 74 +5  1020.6  0.2  752  298           
21 20.10.17 300 (СЗ) 10 км    9/0 
[Sc]
+4.5 -0.6 69 +5  1020.5  -0.1  752  298           
00 21.10.17 270 (З) 4000 м  дымка  ясно 
+1.4 -0.5 87 +2  1020.3  -0.3  752  301           
03 21.10.17 тихо ()   4000 м  дымка  ясно 
-1.4 -2.3 94 -1  1019.8  -0.9  751  305  -1.4         
06 21.10.17 250 (З) 4000 м  дымка  9/8 600 м средняя 
[Sc|Ac trans]
+3.1 +1 86 +4  1019.3  -0.2  751  299           
09 21.10.17 310 (СЗ) 10 км    9/8 600 м средняя 
[Sc|Ac trans]
+5.3 -0.2 68 +5  1018.5  -0.7  751  297           
12 21.10.17 270 (З) 10 км    9/8 600 м кучево-дожд., средняя 
[Cb cap|Ac trans]
+5.7 +0 67 +5  1017.2  -1.3  750  296           
15 21.10.17 тихо ()   4000 м  дымка{ливн. осадки}  5/3 600 м средняя 
[Cu med, cong|Ac trans]
+1.7 +0.1 89 +2  1017.4  -0.1  750  300    +6.2  0.0     
18 21.10.17 тихо ()   4000 м  дымка{ливн. осадки}  ясно 
-1.2 -2.1 94 -1  1017.4  -0.1  750  304           
21 21.10.17 тихо ()   2000 м  дымка  ясно 
-1.8 -2.3 96 -2  1017.2  -0.3  749  304           
00 22.10.17 270 (З) 2000 м  дымка  9/0 средняя 
[Ac trans]
-0.6 -1 97 1016.5  -0.5  749  303           
03 22.10.17 310 (СЗ) 2000 м  дымка  10/0 средняя 
[As op]
-0.5 -0.8 98 1016.4  -0.2  749  302  -1.9         
06 22.10.17 330 (СЗ) 4000 м  дымка  9/9 600 м 
[Sc]
+0.4 -0.5 94 +1  1016.7  0.3  749  301           
09 22.10.17 350 (С) 10 км  в посл. час крупа{ливн. осадки}  9/8 600 м кучево-дожд., средняя 
[Cb cap|Ac cuf]
+2.2 -0.8 81 +1  1016.6  0.1  749  300           
12 22.10.17 360 (С) 10 км  {ливн. осадки}  3/3 600 м кучево-дожд. 
[Cb calv]
+2 -3 69 +1  1016.9  0.3  749  300           
15 22.10.17 340 (С) 10 км    9/0 средняя 
[Ac trans]
-0.7 -4.5 75 -3  1018.4  1.3  750  304  +2.8    0.0     
18 22.10.17 тихо ()   4000 м  дымка  ясно 
-3.7 -5.5 87 -4  1019.3  0.7  751  307           
21 22.10.17 260 (З) 4000 м  дымка  ясно 
-4.1 -5.7 89 -4  1019.7  0.3  751  308           
00 23.10.17 260 (З) 4000 м  дымка  ясно 
-4.4 -6 89 -6  1019.6  -0.1  751  308           
03 23.10.17 240 (ЮЗ) 4000 м  дымка  1/0 средняя 
[Ac lent]
-4.7 -6.4 88 -4  1020  0.4  751  309  -4.7         
06 23.10.17 220 (ЮЗ) 4000 м  дымка  8/0 средняя 
[Ac trans]
-2.8 -4.4 89 -4  1020.1  0.2  752  306  -5.1         
09 23.10.17 240 (ЮЗ) 10 км    8/0 средняя 
[Ac cast]
+1.1 -3.8 70 1019.8  752  302           
12 23.10.17 280 (З) 10 км    10/0 средняя 
[As op]
+3.1 -4.1 59 +2  1020  0.3  752  300           
Время (UTC), дата Ветер
(°,м/с) 
Видим.   Явления Облачность Т
(°С)
Тd
(°С)
f(%) Тe
(°С)
Pmin
(гПа)
dP
(гПа)
Po
(мм)
O2
(г/м3)
Тmin Tmax R s Состояние
почвы

Для получения пояснительной информации подведите курсор к названию столбца.

ПОГОДА в Моршанске - архив

Всё, что Вы хотите узнать о погоде в Моршанске - удобно и подробно!

Выберите нужную дату (начиная с 1 января 2015* года) и нажмите кнопку "Найти".
Будут отображены архивные сводки погоды по пункту Моршанск, начиная с указанной даты.


Отображать данные в формате CSV (для использования в таблицах Excel)


Внимание! Наш архив погоды предназначен исключительно для личного некоммерческого использования в познавательных целях. Если Вам необходимы официальные справки о состоянии погоды (для производственных, юридических, коммерческих и т.п. целей), обращайтесь в органы Росгидромета.

*Примечание: данная дата относится к архиву по метеостанциям СССР (Россия, СНГ, Балтия).
Архив по метеостанциям Зарубежной Европы и Азии (кроме Китая) хранится 10 дней, по другим регионам земного шара (Китай, Африка, Америка, Австралия, Океания) - 1 день.

Моршанск - район местоположения метеостанции


Название, широта, долгота, высота метеостанции:
Моршанск 53.4°ш. 41.8°д. 142 м над ур. моря [Российская Федерация]

Дополнительная информация

В oтличие oт бoльшинства пoгoдных сайтoв мы публикуем пoдрoбную метеoинфoрмацию в детальнoм прoфессиoнальнoм фoрмате.

Характеристики температуры и влажнoсти вoздуха измеряются на высoте 2 м в тени вдали oт зданий и деревьев.
Скoрoсть ветра измеряется на высoте 10 м (на урoвне рoста челoвека скoрoсть ветра ниже в 1.5-2 раза). Если метеoстанция нахoдится в гoрoде или в лесу, тo скoрoсть ветра занижена на 2-4 м/с пo сравнению с oткрытым местoм. Скoрoсть ветра над акватoриями крупных рек и oзёр, а также на вершинах хoлмoв на 2-5 м/с выше, чем в oбычных услoвиях.
Атмoсфернoе давление в разных тoчках местнoсти мoжет значительнo oтличаться oт давления на метеoстанции, в зависимoсти oт услoвий рельефа (при пoдъёме на 10 м давление пoнижается примернo на 1 мм рт.ст.).